Weather Roundup
Issued by NWS

Home | Current Version | Previous Version | Graphics & Text | Print | Product List | Glossary Off
Versions: 1 2 3 4 5 6 7 8 9 10 11 12 13 14 15 16 17 18 19 20 21 22 23 24 25 26 27 28 29 30 31 32 33 34 35 36 37 38 39 40 41 42 43 44 45 46 47 48 49 50

000
NZUS93 KARX 212310
HRRWXR

CURRENT HOURLY OBSERVATIONS ACROSS
MUCH OF THE UPPER MISSISSIPPI VALLEY
NATIONAL WEATHER SERVICE LA CROSSE WI
500 PM CST WED FEB 21 2018


...SOUTHEAST MINNESOTA...


CITY           SKY/WX    TMP DP  RH WIND       PRES   REMARKS
ROCHESTER      FAIR      19   9  65 W6        30.60R WCI  11
ROCHESTER/MAYO FAIR      20   6  55 W5        30.62R WCI  14
WINONA         FAIR      23  10  58 CALM      30.63R
AUSTIN         FAIR      19  10  68 CALM      30.60R
ALBERT LEA     FAIR      19   9  63 CALM      30.59S
DODGE CENTER   FAIR      18   7  62 W3        30.60R
PRESTON        FAIR      20  12  71 CALM      30.61R
OWATONNA       FAIR      16   9  73 SW5       30.61R WCI   9
FARIBAULT      FAIR      16   7  67 CALM      30.63R
$$

...ELSEWHERE IN MINNESOTA...


CITY           SKY/WX    TMP DP  RH WIND       PRES   REMARKS
MINNEAPOLIS    FAIR      19   2  47 SW7       30.64R WCI  10
INTNL FALLS    FAIR      19   2  47 W6        30.46R WCI  11
DULUTH         FAIR      22   3  44 SW14      30.51R WCI   9
RED WING       FAIR      18   1  49 CALM      30.64R
REDWOOD FALLS  FAIR      18   2  49 W7        30.60S WCI   9
MANKATO        FAIR      18   3  52 W5        30.63R WCI  11
WORTHINGTON    FAIR      17   6  62 W3        30.56S
FAIRMONT       FAIR      17   5  59 NW6       30.61R WCI   9
$$

...SOUTHWEST WISCONSIN...


CITY           SKY/WX    TMP DP  RH WIND       PRES   REMARKS
LA CROSSE      FAIR      26  12  55 N3        30.64R
PRAIRIE DU CHI FAIR      26   7  43 NW5       30.64R WCI  21
BOSCOBEL       FAIR      28   7  41 CALM      30.65R
LONE ROCK      FAIR      27  10  49 W5        30.64R WCI  22
PLATTEVILLE    FAIR      26  15  62 N7        30.61S WCI  18
FORT MC COY    FAIR      23  15  72 W3        30.64R
CAMP DOUGLAS   PTCLDY    23  12  63 CALM      30.62R
MAUSTON-NEW LI FAIR      24  12  61 CALM      30.63R
VIROQUA        FAIR      22  14  72 CALM      30.60R
WIS DELLS      FAIR      25   4  41 CALM      30.62R
$$

...ELSEWHERE IN WISCONSIN...


CITY           SKY/WX    TMP DP  RH WIND       PRES   REMARKS
MILWAUKEE      MOCLDY    28  17  63 NE6       30.61R WCI  22
MADISON        MOCLDY    25  11  55 N6        30.62R WCI  18
GREEN BAY      FAIR      26  12  55 W7        30.62R WCI  18
EAU CLAIRE     FAIR      18   3  52 W6        30.62S WCI  10
BLACK RVR FLS  FAIR      23   9  54 W3        30.63R
MEDFORD        FAIR      16   4  57 SW7       30.56R WCI   7
WAUSAU         FAIR      17   6  62 W7        30.57S WCI   8
WIS RAPIDS     FAIR      22   9  57 NW6       30.62R WCI  14
MARSHFIELD     FAIR      19   7  59 W5        30.58R WCI  12
RICE LAKE      FAIR      17   4  58 CALM      30.62R
$$

...NORTHEAST IOWA...


CITY           SKY/WX    TMP DP  RH WIND       PRES   REMARKS
WATERLOO       FAIR      23  12  62 N6        30.62S WCI  16
DUBUQUE        FAIR      25  11  55 N10       30.59S WCI  15
DECORAH        FAIR      23  12  63 CALM      30.61R
MASON CITY     FAIR      21  11  65 CALM      30.62R
CHARLES CITY   FAIR      23  12  63 CALM      30.62R
OELWEIN        FAIR      23  14  68 N8        30.62R WCI  14
$$

...ELSEWHERE IN IOWA...


CITY           SKY/WX    TMP DP  RH WIND       PRES   REMARKS
DES MOINES     CLOUDY    25  15  66 NE10      30.60S WCI  15
IOWA CITY      FAIR      29  13  51 N7        30.63R WCI  22
FORT DODGE     MOCLDY    21   9  59 E7        30.61R WCI  12
MARSHALLTOWN   FAIR      23  15  71 NE10      30.61R WCI  12
CEDAR RAPIDS   FAIR      27  12  53 N9        30.59S WCI  18
$$

...NORTHERN ILLINOIS...


CITY           SKY/WX    TMP DP  RH WIND       PRES   REMARKS
CHICAGO-OHARE  CLOUDY    30  20  66 NE12      30.59R WCI  20
CHICAGO-MIDWAY CLOUDY    30  20  66 NE12      30.60R WCI  20
MOLINE         FAIR      29  18  63 N7        30.60R WCI  22
ROCKFORD       CLOUDY    27  17  66 N12       30.62R WCI  17
PEORIA         MOCLDY    30  25  81 NE8       30.56R WCI  22
$$

NOTE: "FAIR" INDICATES FEW OR NO CLOUDS BELOW 12,000 FEET WITH NO
SIGNIFICANT WEATHER AND/OR OBSTRUCTIONS TO VISIBILITY. WIND
SPEEDS ARE IN MILES-PER-HOUR.




USA.gov is the U.S. government's official web portal to all federal, state and local government web resources and services.